Weather History for KY19 - June, 2013

Change the Weather History Date:

Sunday, June 23, 2013

  Actual Average (KBIS) Record (KBIS)
Temperature  
Mean Temperature 65 °F 67 °F  
Max Temperature 73 °F 80 °F 103 °F (1988)
Min Temperature 57 °F 54 °F 33 °F (1942)
Degree Days  
Heating Degree Days 0 2  
Month to date heating degree days 82  
Since 1 June heating degree days 82  
Since 1 July heating degree days 8547  
Cooling Degree Days 0 4  
Month to date cooling degree days 53  
Year to date cooling degree days 70  
Since 1 June cooling degree days 53  
Growing Degree Days 15 (Base 50)    
Moisture  
Dew Point 56 °F    
Average Humidity 77    
Maximum Humidity 100    
Minimum Humidity 46    
Precipitation  
Precipitation 0.00 in 0.11 in 1.55 in (1875)
Month to date precipitation 2.45  
Year to date precipitation 7.92  
Snow  
Snow 0.00 in 0.00 in 0.00 in (2002)
Month to date snowfall 0.0  
Since 1 June snowfall 0.0  
Since 1 July snowfall 51.2  
Snow Depth -    
Sea Level Pressure  
Sea Level Pressure 29.78 in    
Wind  
Wind Speed 11 mph (West)    
Max Wind Speed 28 mph    
Max Gust Speed 33 mph    
Visibility 10 miles    
Events      
T = Trace of Precipitation, MM = Missing Value Source: NWS Daily Summary

Daily Weather History Graph

Daily Weather History Graph

Search for Another Location

Airport or City:

Trip Planner

Search our weather history database for the weather conditions in past years. The results will help you decide how hot, cold, wet, or windy it might be!

Date:

Astronomy

Jun. 23, 2013 Rise Set
Actual Time 5:50 AM CDT 9:41 PM CDT
Civil Twilight 5:10 AM CDT 10:21 PM CDT
Nautical Twilight 4:16 AM CDT 11:15 PM CDT
Astronomical Twilight 2:56 AM CDT 12:34 AM CDT
Moon 9:49 PM CDT (6/23) 6:14 AM CDT (6/23)
Length of Visible Light 17h 10m
Length of Day
15h 51m
Full, 100% of the Moon is Illuminated
Jun 23
Full
Jun 29
Last Quarter
Jul 8
New
Jul 15
First Quarter
Jul 22
Full

Hourly Weather History & Observations

Time (CDT) Temp. Dew Point Humidity Pressure Visibility Wind Dir Wind Speed Gust Speed Precip Events Conditions
12:15 AM 59.0 °F 59.0 °F 100% 29.74 in 10.0 mi ESE 4.6 mph - N/A   Overcast
12:35 AM 59.0 °F 59.0 °F 100% 29.72 in 10.0 mi ENE 5.8 mph - N/A   Overcast
12:55 AM 59.0 °F 59.0 °F 100% 29.70 in 10.0 mi NE 4.6 mph - N/A   Overcast
1:15 AM 59.0 °F 59.0 °F 100% 29.71 in 10.0 mi Calm Calm - N/A   Overcast
1:35 AM 59.0 °F 59.0 °F 100% 29.72 in 10.0 mi Calm Calm - N/A   Overcast
1:55 AM 59.0 °F 59.0 °F 100% 29.73 in 10.0 mi Calm Calm - N/A   Overcast
2:15 AM 59.0 °F 59.0 °F 100% 29.74 in 10.0 mi West 6.9 mph - N/A   Overcast
2:35 AM 57.2 °F 57.2 °F 100% 29.76 in 10.0 mi West 8.1 mph - N/A   Mostly Cloudy
2:55 AM 57.2 °F 57.2 °F 100% 29.76 in 10.0 mi West 5.8 mph - N/A   Overcast
3:15 AM 57.2 °F 57.2 °F 100% 29.74 in 10.0 mi WNW 8.1 mph - N/A   Mostly Cloudy
3:35 AM 57.2 °F 57.2 °F 100% 29.73 in 7.0 mi WNW 8.1 mph - N/A   Mostly Cloudy
3:55 AM 57.2 °F 57.2 °F 100% 29.73 in 6.0 mi WNW 9.2 mph - N/A   Scattered Clouds
4:15 AM 59.0 °F 59.0 °F 100% 29.74 in 9.0 mi WNW 9.2 mph - N/A   Mostly Cloudy
4:35 AM 59.0 °F 59.0 °F 100% 29.75 in 10.0 mi West 12.7 mph - N/A   Overcast
4:55 AM 59.0 °F 59.0 °F 100% 29.75 in 8.0 mi WNW 11.5 mph - N/A   Overcast
5:15 AM 59.0 °F 59.0 °F 100% 29.75 in 10.0 mi West 11.5 mph - N/A   Mostly Cloudy
5:35 AM 59.0 °F 59.0 °F 100% 29.75 in 10.0 mi West 20.7 mph 25.3 mph N/A   Overcast
5:55 AM 59.0 °F 59.0 °F 100% 29.74 in 10.0 mi West 16.1 mph - N/A   Overcast
6:15 AM 57.2 °F 57.2 °F 100% 29.74 in 10.0 mi North - - N/A   Overcast
6:35 AM 57.2 °F 57.2 °F 100% 29.75 in 10.0 mi North - - N/A   Overcast
6:55 AM 57.2 °F 57.2 °F 100% 29.76 in 10.0 mi North - - N/A   Overcast
7:15 AM 57.2 °F 57.2 °F 100% 29.77 in 10.0 mi West 16.1 mph - N/A   Overcast
7:35 AM 59.0 °F 59.0 °F 100% 29.77 in 10.0 mi West 18.4 mph 23.0 mph N/A   Scattered Clouds
7:55 AM 59.0 °F 59.0 °F 100% 29.75 in 10.0 mi West 19.6 mph 25.3 mph N/A   Partly Cloudy
8:15 AM 59.0 °F 59.0 °F 100% 29.76 in 10.0 mi West 18.4 mph 24.2 mph N/A   Clear
8:35 AM 60.8 °F 60.8 °F 100% 29.77 in 10.0 mi WNW 16.1 mph 23.0 mph N/A   Clear
8:55 AM 62.6 °F 60.8 °F 94% 29.77 in 10.0 mi West 18.4 mph 21.9 mph N/A   Clear
9:15 AM 62.6 °F 60.8 °F 94% 29.78 in 10.0 mi WNW 18.4 mph 23.0 mph N/A   Clear
9:35 AM 62.6 °F 60.8 °F 94% 29.78 in 10.0 mi West 18.4 mph 25.3 mph N/A   Mostly Cloudy
9:55 AM 62.6 °F 60.8 °F 94% 29.78 in 10.0 mi West 19.6 mph 23.0 mph N/A   Overcast
10:15 AM 64.4 °F 59.0 °F 83% 29.78 in 10.0 mi West 20.7 mph 26.5 mph N/A   Mostly Cloudy
10:35 AM 64.4 °F 59.0 °F 83% 29.77 in 10.0 mi West 21.9 mph 27.6 mph N/A   Mostly Cloudy
10:55 AM 64.4 °F 59.0 °F 83% 29.77 in 10.0 mi West 21.9 mph 26.5 mph N/A   Scattered Clouds
11:15 AM 66.2 °F 57.2 °F 73% 29.77 in 10.0 mi West 23.0 mph 31.1 mph N/A   Scattered Clouds
11:35 AM 66.2 °F 57.2 °F 73% 29.77 in 10.0 mi West 25.3 mph 31.1 mph N/A   Scattered Clouds
11:55 AM 66.2 °F 57.2 °F 73% 29.77 in 10.0 mi West 21.9 mph 28.8 mph N/A   Scattered Clouds
12:15 PM 66.2 °F 57.2 °F 73% 29.77 in 10.0 mi WNW 20.7 mph 26.5 mph N/A   Mostly Cloudy
12:35 PM 66.2 °F 55.4 °F 68% 29.77 in 10.0 mi WNW 25.3 mph 31.1 mph N/A   Mostly Cloudy
12:55 PM 68.0 °F 55.4 °F 64% 29.77 in 10.0 mi West 19.6 mph 31.1 mph N/A   Scattered Clouds
1:15 PM 68.0 °F 57.2 °F 68% 29.77 in 10.0 mi West 19.6 mph 25.3 mph N/A   Scattered Clouds
1:35 PM 68.0 °F 55.4 °F 64% 29.78 in 10.0 mi West 27.6 mph 33.4 mph N/A   Mostly Cloudy
1:55 PM 68.0 °F 53.6 °F 60% 29.78 in 10.0 mi WNW 23.0 mph 29.9 mph N/A   Mostly Cloudy
2:15 PM 69.8 °F 53.6 °F 56% 29.78 in 10.0 mi WNW 20.7 mph 33.4 mph N/A   Scattered Clouds
2:35 PM 71.6 °F 53.6 °F 53% 29.79 in 10.0 mi WNW 21.9 mph 31.1 mph N/A   Partly Cloudy
2:55 PM 71.6 °F 51.8 °F 50% 29.80 in 10.0 mi WNW 24.2 mph 32.2 mph N/A   Clear
3:15 PM 71.6 °F 51.8 °F 50% 29.81 in 10.0 mi West 20.7 mph 32.2 mph N/A   Partly Cloudy
3:35 PM 71.6 °F 50.0 °F 46% 29.81 in 10.0 mi WNW 21.9 mph 27.6 mph N/A   Partly Cloudy
3:55 PM 71.6 °F 50.0 °F 46% 29.81 in 10.0 mi NW 20.7 mph 27.6 mph N/A   Partly Cloudy
4:15 PM 71.6 °F 50.0 °F 46% 29.81 in 10.0 mi WNW 18.4 mph 24.2 mph N/A   Clear
4:35 PM 71.6 °F 50.0 °F 46% 29.81 in 10.0 mi West 15.0 mph 21.9 mph N/A   Clear
4:55 PM 71.6 °F 50.0 °F 46% 29.80 in 10.0 mi NW 12.7 mph - N/A   Clear
5:15 PM 73.4 °F 51.8 °F 47% 29.80 in 10.0 mi West 10.4 mph - N/A   Partly Cloudy
5:35 PM 73.4 °F 53.6 °F 50% 29.80 in 10.0 mi West 11.5 mph - N/A   Partly Cloudy
5:55 PM 73.4 °F 53.6 °F 50% 29.80 in 10.0 mi West 11.5 mph 17.3 mph N/A   Partly Cloudy
6:15 PM 71.6 °F 53.6 °F 53% 29.80 in 10.0 mi WSW 12.7 mph 16.1 mph N/A   Scattered Clouds
6:35 PM 73.4 °F 55.4 °F 53% 29.80 in 10.0 mi SW 9.2 mph - N/A   Scattered Clouds
6:55 PM 73.4 °F 53.6 °F 50% 29.79 in 10.0 mi WSW 10.4 mph 16.1 mph N/A   Scattered Clouds
7:15 PM 73.4 °F 53.6 °F 50% 29.80 in 10.0 mi WSW 12.7 mph - N/A   Partly Cloudy
7:35 PM 73.4 °F 53.6 °F 50% 29.80 in 10.0 mi WSW 10.4 mph - N/A   Clear
7:55 PM 73.4 °F 53.6 °F 50% 29.80 in 10.0 mi WSW 9.2 mph - N/A   Clear
8:15 PM 71.6 °F 53.6 °F 53% 29.80 in 10.0 mi SW 9.2 mph - N/A   Clear
8:35 PM 71.6 °F 55.4 °F 57% 29.80 in 10.0 mi SW 8.1 mph - N/A   Clear
8:55 PM 71.6 °F 55.4 °F 57% 29.81 in 10.0 mi SW 6.9 mph - N/A   Clear
9:15 PM 68.0 °F 57.2 °F 68% 29.81 in 10.0 mi SW 8.1 mph - N/A   Clear
9:35 PM 66.2 °F 57.2 °F 73% 29.81 in 10.0 mi SW 8.1 mph - N/A   Clear
9:55 PM 66.2 °F 55.4 °F 68% 29.81 in 10.0 mi SW 9.2 mph - N/A   Clear
10:15 PM 64.4 °F 55.4 °F 73% 29.82 in 10.0 mi SSW 8.1 mph - N/A   Clear
10:35 PM 62.6 °F 55.4 °F 77% 29.82 in 10.0 mi SSW 8.1 mph - N/A   Clear
10:55 PM 62.6 °F 55.4 °F 77% 29.82 in 10.0 mi SW 6.9 mph - N/A   Clear
11:15 PM 62.6 °F 55.4 °F 77% 29.82 in 10.0 mi SW 6.9 mph - N/A   Clear
11:35 PM 60.8 °F 57.2 °F 88% 29.82 in 10.0 mi SW 6.9 mph - N/A   Clear
11:55 PM 62.6 °F 55.4 °F 77% 29.82 in 10.0 mi SSW 8.1 mph - N/A   Clear